Temp
7 7 6 6 6 6 6 6 6 6 5 5 5 5 4 4 4 4 4 3 3 3 3 3 3 3 3 3 3 3 2 2
6 6 6 6 6 6 6 6 6 5 5 5 5 5 4 4 4 4 4 4 4 4 4 4 3 3 3 3 3 2 2 2
6 6 5 6 5 6 6 5 5 4 5 4 4 4 4 4 4 4 4 4 4 4 3 3 3 3 3 3 3 2 2 2
6 5 6 5 5 5 5 4 4 4 4 4 4 4 4 4 3 3 4 4 4 4 4 3 3 3 3 2 2 2 1 1
5 4 5 5 5 5 5 5 4 4 4 4 3 3 3 3 3 3 3 3 3 3 3 3 3 3 2 2 2 2 1 1
4 4 4 4 4 4 5 4 4 4 4 3 3 3 3 2 2 2 2 2 2 2 2 2 2 2 2 2 2 2 1 1
4 4 3 4 4 4 4 4 4 3 3 3 3 3 3 2 2 2 1 1 1 1 1 1 1 1 2 2 2 2 2 2
4 3 3 3 4 4 4 3 3 3 3 3 3 2 2 2 1 1 1 1 1 1 0 0 1 1 1 1 2 2 2 2
4 2 3 3 4 3 4 3 3 2 2 2 2 2 1 1 1 0 0 0 0 -0 -0 -0 -0 -0 -0 -0 -0 1 1 2
3 3 3 4 3 3 3 3 3 2 1 1 1 2 1 1 1 0 0 -0 -0 -1 -1 -0 -0 -0 -1 -1 -1 -1 -1 -0
4 4 4 4 3 2 3 2 2 2 1 1 0 0 -0 -1 -1 0 -0 -1 -1 -1 -1 -1 -1 -1 -1 -1 -2 -1 -1 -2
3 4 4 4 1 2 3 2 2 2 2 1 1 0 0 -1 -2 -2 -2 -2 -1 -1 -2 -2 -3 -3 -3 -2 -2 -2 -2 -2
4 4 3 2 2 2 2 2 1 1 1 -0 -1 -1 -2 -1 -1 -2 -2 -2 -1 -2 -2 -3 -3 -3 -3 -3 -3 -3 -2 -2
4 4 3 2 2 2 2 1 1 -0 -1 -1 -1 -2 -3 -2 -2 -2 -2 -2 -3 -3 -3 -3 -3 -4 -4 -4 -4 -3 -3 -3
3 3 2 2 2 1 1 0 -0 -1 -1 -2 -2 -2 -1 -2 -2 -3 -3 -4 -4 -4 -5 -5 -4 -4 -5 -5 -5 -4 -4 -4
2 2 2 1 1 1 0 -1 -1 -1 -1 -1 -1 -2 -2 -2 -3 -3 -4 -5 -6 -5 -5 -5 -5 -5 -5 -6 -6 -6 -6 -5
2 2 2 2 1 0 0 -0 -1 -1 -2 -2 -2 -3 -4 -4 -5 -5 -6 -6 -6 -6 -5 -6 -6 -6 -6 -7 -8 -8 -9 -9
1 1 -0 -0 -1 -1 -1 -1 -1 -2 -2 -3 -3 -4 -5 -5 -5 -6 -6 -6 -6 -6 -7 -7 -8 -8 -9 -10 -11 -11 -11 -11
1 1 0 -0 -1 -2 -2 -3 -3 -4 -5 -5 -6 -6 -6 -6 -6 -7 -7 -7 -7 -8 -8 -9 -9 -10 -10 -11 -12 -12 -12 -12
-0 -0 -1 -1 -2 -2 -3 -3 -4 -4 -5 -5 -6 -6 -6 -7 -7 -7 -8 -8 -8 -9 -9 -10 -11 -12 -12 -12 -12 -12 -12 -12
Height
3185 3185 3184 3184 3183 3183 3183 3184 3184 3185 3184 3184 3183 3183 3182 3180 3178 3176 3175 3173 3171 3169 3167 3165 3164 3163 3162 3162 3162 3161 3158 3157
3183 3183 3183 3183 3183 3183 3183 3184 3183 3182 3182 3184 3183 3181 3182 3180 3178 3176 3174 3171 3169 3167 3164 3162 3160 3158 3157 3157 3157 3155 3154 3151
3183 3183 3183 3183 3182 3183 3182 3183 3183 3182 3181 3181 3181 3180 3180 3179 3178 3176 3174 3171 3169 3166 3163 3161 3158 3155 3154 3153 3153 3152 3150 3146
3180 3181 3182 3183 3182 3182 3183 3182 3183 3183 3182 3183 3179 3177 3176 3176 3174 3173 3171 3169 3167 3164 3161 3159 3156 3153 3150 3149 3148 3147 3147 3144
3181 3181 3180 3181 3182 3183 3184 3182 3183 3184 3183 3179 3178 3176 3174 3172 3172 3170 3169 3166 3165 3162 3160 3157 3154 3152 3150 3147 3145 3143 3142 3141
3181 3183 3181 3180 3181 3180 3181 3180 3180 3181 3182 3179 3178 3176 3174 3171 3169 3166 3164 3163 3160 3158 3156 3154 3151 3149 3148 3146 3144 3141 3139 3136
3179 3184 3183 3182 3183 3180 3181 3180 3179 3179 3179 3178 3176 3174 3172 3169 3167 3165 3162 3160 3158 3155 3152 3150 3147 3144 3142 3141 3140 3138 3136 3133
3179 3184 3185 3182 3181 3182 3181 3180 3177 3175 3175 3175 3173 3170 3169 3166 3164 3162 3159 3157 3154 3151 3148 3145 3143 3140 3137 3134 3132 3131 3129 3127
3176 3172 3179 3182 3178 3180 3180 3178 3175 3172 3170 3171 3170 3167 3165 3161 3159 3156 3153 3151 3149 3147 3144 3140 3137 3134 3130 3127 3124 3124 3122 3119
3172 3174 3175 3180 3177 3177 3176 3175 3172 3170 3165 3163 3161 3158 3158 3155 3153 3150 3147 3144 3142 3139 3136 3133 3130 3127 3123 3121 3118 3115 3113 3112
3173 3172 3172 3176 3174 3173 3173 3171 3169 3165 3162 3159 3155 3151 3148 3146 3145 3143 3141 3137 3135 3131 3128 3123 3119 3117 3114 3111 3110 3108 3107 3104
3168 3169 3171 3170 3170 3169 3167 3165 3164 3160 3159 3154 3151 3147 3145 3143 3139 3134 3130 3127 3125 3121 3116 3113 3109 3106 3102 3101 3100 3099 3098 3097
3168 3166 3165 3165 3166 3165 3164 3161 3157 3153 3150 3148 3146 3143 3138 3134 3129 3124 3119 3117 3116 3112 3106 3103 3100 3097 3093 3090 3089 3089 3087 3088
3164 3165 3166 3164 3161 3159 3158 3157 3154 3152 3150 3144 3138 3133 3127 3124 3119 3116 3112 3108 3105 3102 3098 3093 3091 3089 3082 3077 3071 3074 3076 3076
3167 3167 3165 3163 3161 3158 3156 3152 3149 3145 3141 3137 3132 3128 3123 3117 3111 3106 3101 3096 3093 3090 3087 3083 3078 3077 3073 3068 3061 3056 3053 3057
3164 3164 3163 3159 3155 3152 3148 3145 3141 3137 3133 3127 3123 3119 3114 3107 3101 3096 3091 3085 3082 3077 3073 3070 3066 3063 3060 3055 3050 3045 3038 3031
3158 3156 3154 3152 3147 3143 3139 3136 3133 3128 3123 3119 3112 3105 3099 3095 3089 3085 3080 3076 3071 3066 3062 3058 3054 3049 3045 3039 3037 3032 3029 3024
3154 3151 3147 3143 3139 3134 3130 3126 3123 3119 3114 3108 3102 3096 3091 3086 3081 3074 3069 3063 3058 3053 3047 3043 3039 3035 3031 3027 3023 3018 3015 3012
3147 3146 3145 3141 3135 3129 3124 3118 3113 3107 3102 3097 3090 3086 3082 3075 3068 3063 3058 3052 3046 3041 3035 3029 3024 3021 3018 3016 3012 3010 3006 3002
3143 3141 3138 3134 3129 3124 3118 3113 3106 3099 3093 3087 3080 3075 3069 3063 3057 3051 3045 3039 3034 3030 3024 3019 3013 3011 3008 3004 3000 3000 2997 2994
Wind_Speed
4 7 8 8 4 3 3 4 4 5 7 8 9 11 12 14 16 18 20 21 22 23 23 23 24 24 23 22 20 18 19 20
7 7 5 1 2 2 1 2 3 4 6 9 11 11 11 11 14 17 20 22 24 25 26 26 26 26 24 22 20 19 18 22
6 5 3 3 2 2 3 3 4 6 7 8 8 9 11 14 16 18 19 21 22 24 24 24 23 24 23 20 19 18 15 19
9 6 5 2 3 4 3 5 5 5 8 9 12 16 19 22 24 24 24 24 23 22 21 22 21 21 23 23 21 19 17 18
6 5 7 4 4 2 1 3 5 5 8 15 18 19 22 23 23 23 23 23 21 21 21 21 20 20 20 21 23 22 21 20
11 10 8 5 4 4 8 9 11 13 17 18 20 22 23 23 23 25 25 24 23 21 22 23 23 22 22 20 21 22 22 24
16 12 10 8 6 5 7 9 11 15 17 20 24 25 25 25 23 24 23 22 22 21 22 23 24 23 24 25 24 22 23 24
13 9 10 14 9 8 10 11 14 17 19 21 22 25 22 22 22 22 22 23 23 24 25 26 26 28 28 29 28 29 28 27
23 9 7 11 10 13 15 16 18 20 23 23 22 28 26 28 27 24 25 27 29 28 29 31 33 33 34 31 32 30 29 31
23 24 18 14 7 17 21 23 20 23 26 29 33 37 34 34 33 31 33 35 34 34 37 37 36 35 36 34 32 33 33 32
21 23 12 14 19 11 21 20 22 25 25 31 33 35 35 36 35 40 41 41 41 42 39 38 38 36 38 37 34 34 34 34
18 23 20 22 14 21 24 23 26 27 36 41 40 39 40 39 45 48 48 49 44 38 38 37 37 39 41 40 40 39 38 36
25 22 21 20 25 23 25 27 28 39 38 35 34 37 34 48 41 44 47 40 36 37 39 40 40 40 43 45 44 43 43 42
27 23 23 25 27 28 29 29 32 31 29 34 40 44 50 50 43 43 42 43 39 37 39 42 42 42 46 49 52 49 47 46
19 17 17 21 26 27 32 34 33 34 31 35 42 48 44 46 43 42 45 45 44 42 43 44 47 46 47 49 53 55 58 54
15 15 17 22 25 31 32 32 34 37 43 47 45 45 51 49 48 49 49 47 47 47 48 47 47 49 50 50 51 52 56 62
21 25 26 28 28 32 34 37 41 43 44 46 51 52 49 48 47 47 47 47 47 47 48 51 51 51 50 49 47 47 47 48
20 20 24 28 33 38 41 41 42 45 48 53 52 49 48 49 51 45 47 46 48 50 49 50 49 47 45 41 45 43 44 41
23 25 31 33 35 37 41 44 47 49 53 47 49 50 51 47 43 44 45 46 47 49 49 47 48 47 43 39 39 39 37 35
36 37 38 41 41 45 46 45 50 50 56 46 52 51 47 46 46 47 48 49 51 49 45 43 44 40 39 42 40 40 36 37
Wind_Direction
260 278 296 312 312 287 273 281 292 324 339 339 340 345 349 343 337 337 338 335 331 328 322 319 318 316 315 316 315 311 310 308
274 304 319 299 294 230 250 339 350 348 334 345 360 355 357 353 347 345 343 337 336 330 327 325 325 321 320 319 315 310 305 297
280 304 264 294 250 299 358 9 25 16 0 355 346 344 350 349 347 343 340 337 335 329 328 325 327 324 323 319 321 322 318 301
299 295 275 260 291 333 19 43 26 7 355 347 343 344 343 341 345 344 342 342 340 336 332 333 334 337 338 340 336 333 328 320
291 256 293 309 300 137 138 33 14 11 346 350 344 339 338 340 341 338 339 338 337 333 333 336 339 344 344 338 338 335 332 328
336 327 294 287 307 327 344 358 349 342 333 333 331 331 332 333 334 335 336 337 334 333 333 333 335 334 332 333 327 323 320 318
316 316 314 279 266 294 311 322 324 318 324 322 327 323 320 323 326 328 329 328 322 318 323 324 324 325 325 323 319 314 310 309
265 255 297 261 267 283 282 293 300 308 310 316 317 313 310 313 316 317 310 310 311 311 315 319 315 313 313 313 314 314 310 304
251 199 241 243 253 279 290 289 299 302 302 305 308 306 301 301 308 304 302 302 307 308 306 308 310 305 305 303 302 300 298 300
271 280 293 270 270 283 292 295 292 297 301 310 313 307 300 300 309 304 303 301 303 304 307 300 300 298 295 295 292 292 293 292
268 285 292 309 303 294 302 297 291 293 301 306 297 297 300 303 301 303 301 300 299 298 295 301 298 296 293 289 286 283 284 286
261 275 292 301 287 293 301 302 302 298 302 301 300 297 297 301 304 304 302 300 297 296 291 294 297 298 294 290 286 285 281 280
266 279 298 297 298 306 309 306 295 305 297 295 298 303 294 304 305 306 307 307 298 301 299 296 295 293 292 286 283 281 279 279
281 294 294 298 305 310 312 301 293 290 283 292 299 304 303 305 306 306 303 302 303 300 294 293 293 293 291 289 290 288 280 279
279 289 298 305 302 302 298 287 288 292 291 291 294 299 305 308 307 304 302 304 304 302 299 297 297 297 295 293 293 291 290 283
279 298 308 301 292 291 287 290 289 291 295 297 303 305 306 305 307 307 307 305 302 303 302 300 298 296 294 293 292 290 290 289
301 304 299 300 293 290 290 295 299 304 307 305 308 312 311 310 310 307 302 301 300 299 299 299 299 299 298 297 292 287 285 284
302 304 316 312 312 312 312 313 312 310 310 309 308 307 308 304 305 303 301 302 302 302 303 304 304 301 298 285 285 286 286 287
313 321 326 319 320 322 315 312 314 311 313 309 307 306 305 305 304 305 306 308 308 308 307 305 302 298 295 288 285 283 282 284
324 324 318 318 313 316 315 309 308 304 307 296 304 305 306 308 309 311 313 310 307 305 302 298 295 290 282 287 283 286 286 287